This demonstration page uses our WeatherBlox Daily Observations layout. Learn more.

Left ArrowRight Arrow

44.89941, -97.11507

Hourly Observations for September 25, 2018

Temp ( °F °C ) Dew Point ( °F °C ) Humidity (%) Winds ( mph kmh ) Pressure ( in mb ) Visibility ( mi km ) Precip ( " mm )
12:13 am 00:13 Cloudy 49 9.4 47 8.3 93 93 NNW 9 15 29.97 1015 10 16 0.00 0.00
12:53 am 00:53 Cloudy 48 8.9 47 8.3 96 96 N 9 15 29.95 1014 10 16 0.00 0.00
1:53 am 01:53 Cloudy 48 8.9 46 7.8 93 93 N 9 15 29.97 1015 10 16 0.00 0.00
2:22 am 02:22 Cloudy 47 8.3 45 7.2 93 93 N 12 19 29.97 1015 10 16 0.00 0.00
2:48 am 02:48 Mostly Cloudy 46 8 45 7 93 93 N 9 15 29.97 1015 10 16 0.00 0.00
2:53 am 02:53 Mostly Cloudy 47 8.3 44 6.7 90 90 N 8 13 29.96 1014 10 16 0.00 0.00
3:53 am 03:53 Mostly Cloudy 46 7.8 44 6.7 93 93 N 6 9 29.96 1015 10 16 0.00 0.00
4:53 am 04:53 Partly Cloudy 46 7.8 44 6.7 93 93 NE 6 9 29.95 1014 10 16 0.00 0.00
5:53 am 05:53 Cloudy 46 7.8 45 7.2 96 96 N 5 7 29.96 1015 10 16 0.00 0.00
6:53 am 06:53 Cloudy 46 7.8 45 7.2 96 96 N 3 6 29.98 1015 10 16 0.00 0.00
7:53 am 07:53 Cloudy 48 8.9 45 7.2 89 89 WNW 3 6 30.01 1016 10 16 0.00 0.00
8:10 am 08:10 Cloudy 48 8.9 46 7.8 93 93 Calm 30.00 1016 10 16 0.00 0.00
8:35 am 08:35 Cloudy 49 9.4 46 7.8 90 90 VRB 3 6 30.00 1016 10 16 0.00 0.00
8:53 am 08:53 Cloudy 49 9.4 46 7.8 90 90 WNW 6 9 30.01 1016 10 16 0.00 0.00
9:13 am 09:13 Cloudy 49 9.4 46 7.8 90 90 W 5 7 30.00 1016 10 16 0.00 0.00
9:53 am 09:53 Cloudy with Light Rain 49 9.4 47 8.3 93 93 W 8 13 30.03 1017 10 16 0.00 0.03
10:29 am 10:29 Cloudy with Light Rain 49 9.4 47 8.3 93 93 W 10 17 30.03 1017 9 14 0.02 0.51
10:53 am 10:53 Cloudy with Light Rain 49 9.4 47 8.3 93 93 WNW 9 15 30.03 1017 10 16 0.03 0.76
11:02 am 11:02 Cloudy with Light Rain 49 9.4 48 8.9 97 97 WNW 9 15 30.03 1017 9 14 0.01 0.25
11:15 am 11:15 Cloudy with Light Rain 49 9.4 47 8.3 93 93 WNW 12 19 30.03 1017 9 14 0.02 0.51
11:31 am 11:31 Cloudy with Light Rain 49 9.4 48 8.9 97 97 WNW 7 11 30.03 1017 7 11 0.03 0.76
11:40 am 11:40 Cloudy with Light Rain 49 9.4 48 8.9 97 97 WNW 9 15 30.03 1017 6 10 0.03 0.76
11:53 am 11:53 Cloudy with Light Rain 49 9.4 48 8.9 97 97 W 8 13 30.04 1017 6 10 0.04 1.02
12:00 pm 12:00 Cloudy with Light Rain 49 9.4 48 8.9 97 97 W 6 9 30.03 1017 5 8 0.01 0.25
12:10 pm 12:10 Cloudy with Light Rain 49 9.4 48 8.9 97 97 W 9 15 30.03 1017 6 10 0.02 0.51
12:53 pm 12:53 Cloudy with Light Rain 50 10 49 9.4 96 96 W 9 15 30.04 1017 10 16 0.03 0.76
1:07 pm 13:07 Cloudy with Light Rain 50 10 49 9.4 96 96 W 7 11 30.03 1017 10 16 0.00 0.03
1:21 pm 13:21 Cloudy 50 10 48 8.9 93 93 W 8 13 30.03 1017 10 16 0.00 0.03
1:53 pm 13:53 Cloudy 52 11.1 48 8.9 86 86 W 7 11 30.04 1017 10 16 0.00 0.03
2:00 pm 14:00 Cloudy with Light Rain 51 10.6 48 8.9 89 89 W 8 13 30.03 1017 10 16 0.00 0.03
2:48 pm 14:48 Cloudy with Light Rain 50 10 48 9 94 94 NW 14 22 30.00 1016 5 8 0.01 0.25
2:53 pm 14:53 Cloudy with Light Rain 51 10.6 49 9.4 92 92 NNW 15 24 30.03 1017 7 11 0.01 0.25
3:05 pm 15:05 Mostly Cloudy 53 11.7 49 9.4 86 86 NNW 15 24 29.97 1015 10 16 0.00 0.03
3:53 pm 15:53 Mostly Sunny 53 11.7 46 7.8 77 77 WNW 10 17 30.02 1017 10 16 0.00 0.03
4:53 pm 16:53 Sunny 55 12.8 45 7.2 69 69 WNW 10 17 30.01 1016 10 16 0.00 0.00
5:53 pm 17:53 Mostly Cloudy 54 12.2 43 6.1 67 67 W 8 13 30.02 1017 10 16 0.00 0.00
6:53 pm 18:53 Cloudy 50 10 47 8.3 89 89 W 8 13 30.03 1017 10 16 0.06 1.52
7:53 pm 19:53 Clear 46 7.8 46 7.8 100 100 WSW 7 11 30.05 1018 10 16 0.00 0.00
8:53 pm 20:53 Partly Cloudy 48 8.9 45 7.2 89 89 W 8 13 30.05 1018 10 16 0.00 0.00
9:53 pm 21:53 Clear 48 8.9 45 7.2 89 89 W 15 24 30.07 1018 10 16 0.00 0.00
10:53 pm 22:53 Mostly Clear 46 7.8 44 6.7 93 93 W 8 13 30.08 1019 10 16 0.00 0.00
11:53 pm 23:53 Mostly Cloudy 46 7.8 44 6.7 93 93 W 12 19 30.09 1019 10 16 0.00 0.00

Powered by AerisWeather